Regional Weather Roundup
Issued by NWS

Home | Current Version | Previous Version | Text Only | Print | Product List | Glossary On
Versions: 1 2 3 4 5 6 7 8 9 10 11 12 13 14 15 16 17 18 19 20 21 22 23 24 25 26 27 28 29 30 31 32 33 34 35 36 37 38 39 40 41 42 43 44 45 46 47 48 49 50
000
ASUS43 KLOT 230321
RWRIL

ILLINOIS REGIONAL WEATHER ROUNDUP
NATIONAL WEATHER SERVICE CHICAGO/ROMEOVILLE IL
1000 PM CDT FRI MAY 22 2015

NOTE: "FAIR" INDICATES FEW OR NO CLOUDS BELOW 12,000 FEET WITH NO
SIGNIFICANT WEATHER AND/OR OBSTRUCTIONS TO VISIBILITY.

* THESE STATIONS ARE NOT UNDER NWS QUALITY CONTROL. THEY ALSO MAY NOT
  REPORT WEATHER SUCH AS PRECIPITATION OR FOG.

ILZ001-002-007-009-015-016-024-230400-
NORTHWEST ILLINOIS

CITY           SKY/WX    TMP DP  RH WIND       PRES   REMARKS
MOLINE         CLOUDY    60  48  64 SW5       30.22R
STERLING*      CLOUDY    63  37  39 E12       30.25R
SAVANNA*       CLOUDY    62  44  50 NE3       30.23R
$$

ILZ003-004-008-010-011-017-018-230400-
NORTH CENTRAL ILLINOIS

CITY           SKY/WX    TMP DP  RH WIND       PRES   REMARKS
ROCKFORD       CLOUDY    58  34  40 E5        30.29R
FREEPORT*      CLOUDY    58  40  51 SE8       30.26R
ROCHELLE*      CLOUDY    58  35  41 E8        30.26R
DE KALB*       CLOUDY    53  33  46 E7        30.28R
PERU*          CLOUDY    63  35  35 E8        30.26R
$$

ILZ005-006-012>014-019>023-230400-
NORTHEAST ILLINOIS

CITY           SKY/WX    TMP DP  RH WIND       PRES   REMARKS
CHICAGO-OHARE  CLOUDY    53  29  39 E7        30.28R
CHICAGO-MIDWAY CLOUDY    56  35  45 E9        30.29R
AURORA         CLOUDY    56  31  38 E10       30.28R
LANSING*       MOCLDY    54  35  50 CALM      30.29R
JOLIET*        CLOUDY    56  36  47 E6        30.28R
WAUKEGAN       CLOUDY    46  32  58 E5        30.29R
DUPAGE AIRPORT CLOUDY    54  31  41 E5        30.28R
KANKAKEE*      CLOUDY    56  42  57 CALM      30.28R
WHEELING       CLOUDY    50  31  48 E6        30.31R
MORRIS*        CLOUDY    57  34  42 E8        30.25R
ROMEOVILLE*    CLOUDY    52  33  48 E6        30.28R
NORTHERLY ISL    N/A     51  40  65 NE6         N/A
$$

LMZ740>746-230400-
SOUTHERN LAKE MICHIGAN

STATION/POSITION SKY/WX   TEMP    WIND        PRES    VSBY  WAVE
                          AIR SEA DIR/SP/G                  HT/PER
                          (F)     (DEG/KT/KT) (MB)    (MI)  (FT/S)
SOUTHERN BUOY              46 38   90/  8/  8 1026.4R         0
HARRISON CRIB              50      70/ 10/ 12   N/A
BURNHAM HARBOR             51      60/  8       N/A
CALUMET HARBOR             52      60/  5/  7   N/A
BURNS HARBOR               56      70/  6/  8 1025.4R
MICHIGAN CITY              56      60/  9/ 10   N/A
MICHIGAN CITY 6N           53 51   80/  8/ 10   N/A           2/ 4
ST. JOSEPH                 54 53  100/  6/  8   N/A           1/ 3
$$

ILZ025>027-034>036-040-047-049-050-058-095>099-230400-
WEST-CENTRAL ILLINOIS

CITY           SKY/WX    TMP DP  RH WIND       PRES   REMARKS
QUINCY         CLOUDY    64  53  67 S3        30.25S
GALESBURG*     CLOUDY    64  46  50 S5        30.23R
MACOMB*        CLOUDY    63  51  63 SW6       30.26R
JACKSONVILLE*  CLOUDY    68  54  60 W3        30.25S
PITTSFIELD*    CLOUDY    66  51  58 W3        30.26S
$$

ILZ028>032-037-038-041>044-048-051>054-059>061-230400-
CENTRAL ILLINOIS

CITY           SKY/WX    TMP DP  RH WIND       PRES   REMARKS
PONTIAC        CLOUDY    64  39  40 E9        30.26R
BLOOMINGTON    CLOUDY    65  44  46 E12       30.26R
DECATUR        CLOUDY    68  47  46 SW7       30.25R
PEORIA         CLOUDY    70  42  36 SW5       30.24R
LACON*         CLOUDY    66  43  44 E12       30.23R
LINCOLN*       CLOUDY    67  45  44 CALM      30.23R
SPRINGFIELD    CLOUDY    68  49  50 W5        30.25R
TAYLORVILLE    CLOUDY    63  50  63 SW5       30.26R
$$

ILZ033-039-045-046-055>057-062-063-230400-
EAST-CENTRAL ILLINOIS

CITY           SKY/WX    TMP DP  RH WIND       PRES   REMARKS
CHAMPAIGN      CLOUDY    67  44  43 SW5       30.25R
DANVILLE*      CLOUDY    63  40  43 E5        30.24R
RANTOUL*       CLOUDY    67  40  37 E10       30.26R
MATTOON        CLOUDY    66  47  50 SW8       30.25R
PARIS*         CLOUDY    66  51  57 S6        30.26R
$$

ILZ079-100>102-230400-
SOUTHWEST ILLINOIS

CITY           SKY/WX    TMP DP  RH WIND       PRES   REMARKS
ALTON          CLOUDY    64  55  72 CALM      30.26
BELLEVILLE     CLOUDY    62  58  87 S5        30.25R
CAHOKIA*       MOCLDY    65  54  67 CALM      30.25R
SPARTA*        CLOUDY    64  54  69 S3        30.28R
$$

ILZ064>066-069>071-074>076-080>082-084>086-088>090-092>094-230400-
SOUTH-CENTRAL ILLINOIS

CITY           SKY/WX    TMP DP  RH WIND       PRES   REMARKS
CARBONDALE     MOCLDY    61  54  77 CALM      30.28R
CAIRO*         CLOUDY    62  59  90 CALM      30.27R
EFFINGHAM*     CLOUDY    63  49  59 CALM      30.28R
MARION         MOCLDY    61  57  88 CALM      30.29R
MT. VERNON     CLOUDY    55  50  82 CALM      30.29R
CENTRALIA*     MOCLDY    60  53  77 S3        30.28R
SALEM*         CLOUDY    65  54  66 S3        30.28R
METROPOLIS*    CLOUDY    62  58  88 CALM      30.27R
$$

ILZ067-068-072-073-078-083-087-091-230400-
SOUTHEAST ILLINOIS

CITY           SKY/WX    TMP DP  RH WIND       PRES   REMARKS
LAWRENCEVILLE  CLOUDY    63  55  75 S3        30.27R
FLORA*         CLOUDY    62  55  76 SW3       30.28R
FAIRFIELD*     CLOUDY    62  55  78 CALM      30.27R
HARRISBURG*    MOCLDY    61  56  84 CALM      30.29R
ROBINSON*      CLOUDY    62  52  68 CALM      30.27R
CARMI*         MOCLDY    62  53  72 CALM      30.27R
$$

ABBREVIATIONS USED IN REMARKS
   TC - TEMPERATURE IN CELSIUS
  WCI - WIND CHILL INDEX
   HX - HEAT INDEX
  VSB - VISIBILITY
$$



USA.gov is the U.S. government's official web portal to all federal, state and local government web resources and services.